CW3794 Weather Reports


Display with metric or nautical units.
time (UTC)temp
F
wind
direction
speed
MPH
gust
MPH
rain 1hr
in
rain 24hr
in
rain mn
in
humidity
%
barometer
mb
20170622182703 101 253 2.0 6.0 0.00 0.00 0.00 24 1008.2
20170622181408 100 221 2.0 5.0 0.00 0.00 0.00 25 1008.2
20170622180859 100 235 2.0 4.0 0.00 0.00 0.00 25 1008.2
20170622175902 100 215 3.0 7.0 0.00 0.00 0.00 24 1008.2
20170622175417 100 188 0.0 5.0 0.00 0.00 0.00 26 1008.2
20170622174916 99 221 3.0 5.0 0.00 0.00 0.00 26 1008.1
20170622174407 99 260 3.0 6.0 0.00 0.00 0.00 25 1008.2
20170622172417 99 272 0.0 6.0 0.00 0.00 0.00 26 1008.2
20170622171438 98 229 2.0 5.0 0.00 0.00 0.00 26 1008.3
20170622170931 98 255 0.0 3.0 0.00 0.00 0.00 27 1008.3
20170622165944 98 161 0.0 2.0 0.00 0.00 0.00 27 1008.3
20170622165402 98 204 0.0 4.0 0.00 0.00 0.00 27 1008.3
20170622164918 97 237 1.0 4.0 0.00 0.00 0.00 27 1008.2
20170622164403 97 232 0.0 5.0 0.00 0.00 0.00 27 1008.3
20170622163408 97 172 0.0 2.0 0.00 0.00 0.00 27 1008.3
20170622162435 96 164 0.0 4.0 0.00 0.00 0.00 27 1008.3
20170622161945 96 162 0.0 4.0 0.00 0.00 0.00 27 1008.4
20170622161401 96 249 0.0 3.0 0.00 0.00 0.00 29 1008.4
20170622160910 95 246 0.0 3.0 0.00 0.00 0.00 28 1008.4
20170622155924 95 245 0.0 2.0 0.00 0.00 0.00 28 1008.5
20170622155425 95 239 0.0 2.0 0.00 0.00 0.00 28 1008.5
20170622154931 95 237 0.0 1.0 0.00 0.00 0.00 28 1008.4
20170622154441 95 238 0.0 1.0 0.00 0.00 0.00 29 1008.4
20170622153417 94 242 0.0 1.0 0.00 0.00 0.00 30 1008.2
20170622152916 94 241 0.0 1.0 0.00 0.00 0.00 29 1008.3
20170622151923 93 238 0.0 1.0 0.00 0.00 0.00 31 1008.2
20170622151443 93 238 0.0 1.0 0.00 0.00 0.00 30 1008.1
20170622150918 93 235 0.0 1.0 0.00 0.00 0.00 31 1008.1
20170622150407 92 235 0.0 2.0 0.00 0.00 0.00 30 1008.1
20170622145909 92 221 0.0 2.0 0.00 0.00 0.00 31 1008.0
20170622145423 92 203 0.0 2.0 0.00 0.00 0.00 31 1008.0
20170622144922 92 202 0.0 1.0 0.00 0.00 0.00 31 1008.0
20170622144423 92 202 0.0 1.0 0.00 0.00 0.00 31 1007.9
20170622143902 92 200 0.0 1.0 0.00 0.00 0.00 31 1007.9
20170622143416 92 156 0.0 1.0 0.00 0.00 0.00 32 1007.8
20170622142909 92 156 0.0 0.0 0.00 0.00 0.00 31 1007.9
20170622142441 92 156 0.0 0.0 0.00 0.00 0.00 32 1007.8
20170622141911 92 277 0.0 0.0 0.00 0.00 0.00 33 1007.7
20170622141417 92 277 0.0 0.0 0.00 0.00 0.00 33 1007.8
20170622140903 91 277 0.0 0.0 0.00 0.00 0.00 34 1007.7
20170622140415 91 277 0.0 0.0 0.00 0.00 0.00 35 1007.7
20170622135944 90 277 0.0 0.0 0.00 0.00 0.00 36 1007.6
20170622135433 89 278 0.0 0.0 0.00 0.00 0.00 36 1007.6
20170622134442 88 278 0.0 0.0 0.00 0.00 0.00 39 1007.2
20170622133926 88 277 0.0 0.0 0.00 0.00 0.00 39 1007.2
20170622132916 86 280 0.0 0.0 0.00 0.00 0.00 39 1007.0
20170622125940 85 258 0.0 0.0 0.00 0.00 0.00 38 1006.6
20170622124417 85 258 0.0 0.0 0.00 0.00 0.00 37 1006.4
20170622123908 85 258 0.0 0.0 0.00 0.00 0.00 37 1006.5
20170622122422 83 259 0.0 0.0 0.00 0.00 0.00 38 1006.2
20170622121929 83 258 0.0 0.0 0.00 0.00 0.00 39 1006.1
20170622120408 84 262 0.0 0.0 0.00 0.00 0.00 38 1005.9
20170622115426 84 259 0.0 0.0 0.00 0.00 0.00 39 1005.8
20170622114359 83 261 0.0 0.0 0.00 0.00 0.00 39 1005.8
20170622112931 84 258 0.0 0.0 0.00 0.00 0.00 38 1005.7
20170622112441 84 260 0.0 0.0 0.00 0.00 0.00 38 1005.6
20170622111901 84 263 0.0 0.0 0.00 0.00 0.00 38 1005.4
20170622111411 84 263 0.0 0.0 0.00 0.00 0.00 38 1005.2
20170622110412 85 262 0.0 0.0 0.00 0.00 0.00 36 1005.0
20170622105407 85 261 0.0 0.0 0.00 0.00 0.00 36 1004.9
20170622104906 85 263 0.0 0.0 0.00 0.00 0.00 36 1004.9
20170622104438 85 261 0.0 0.0 0.00 0.00 0.00 36 1004.9
20170622103936 85 259 0.0 0.0 0.00 0.00 0.00 36 1004.8
20170622102405 86 259 0.0 0.0 0.00 0.00 0.00 36 1004.8
20170622101920 86 266 0.0 0.0 0.00 0.00 0.00 36 1004.7
20170622101406 86 264 0.0 0.0 0.00 0.00 0.00 36 1004.7
20170622100921 86 261 0.0 0.0 0.00 0.00 0.00 36 1004.7
20170622095413 87 260 0.0 0.0 0.00 0.00 0.00 35 1004.6
20170622094906 87 259 0.0 0.0 0.00 0.00 0.00 35 1004.6
20170622094420 87 260 0.0 0.0 0.00 0.00 0.00 35 1004.6
20170622093943 88 260 0.0 0.0 0.00 0.00 0.00 35 1004.6
20170622093405 88 260 0.0 0.0 0.00 0.00 0.00 35 1004.6
20170622092925 88 259 0.0 0.0 0.00 0.00 0.00 34 1004.6
20170622091929 89 260 0.0 0.0 0.00 0.00 0.00 34 1004.5
20170622091440 89 260 0.0 0.0 0.00 0.00 0.00 33 1004.6
20170622090923 89 260 0.0 0.0 0.00 0.00 0.00 33 1004.5
20170622090421 90 259 0.0 0.0 0.00 0.00 0.00 32 1004.4
20170622085414 91 258 0.0 0.0 0.00 0.00 0.00 32 1004.3
20170622084444 91 258 0.0 0.0 0.00 0.00 0.00 31 1004.3
20170622083908 91 258 0.0 0.0 0.00 0.00 0.00 31 1004.2
20170622081911 93 258 0.0 0.0 0.00 0.00 0.00 30 1004.2
20170622081414 93 258 0.0 3.0 0.00 0.00 0.00 29 1004.2
20170622075919 94 259 0.0 2.0 0.00 0.00 0.00 29 1004.1
20170622075436 93 259 0.0 2.0 0.00 0.00 0.00 29 1004.0
20170622074934 94 260 0.0 0.0 0.00 0.00 0.00 29 1004.0
20170622074428 94 259 0.0 1.0 0.00 0.00 0.00 28 1004.0
20170622073919 94 259 0.0 1.0 0.00 0.00 0.00 28 1004.0
20170622073429 95 261 0.0 0.0 0.00 0.00 0.00 28 1003.9
20170622072916 95 259 0.0 0.0 0.00 0.00 0.00 28 1003.9
20170622072419 96 259 0.0 1.0 0.00 0.00 0.00 27 1003.8
20170622070939 96 261 0.0 2.0 0.00 0.00 0.00 27 1003.7
20170622070440 96 222 0.0 6.0 0.00 0.00 0.00 26 1003.7
20170622062938 98 248 0.0 9.0 0.00 0.00 0.00 24 1003.5
20170622061417 99 236 1.0 6.0 0.00 0.00 0.00 23 1003.4
20170622060439 100 245 0.0 6.0 0.00 0.00 0.00 22 1003.3
20170622055403 100 233 1.0 5.0 0.00 0.00 0.00 20 1003.4
20170622054910 101 226 0.0 4.0 0.00 0.00 0.00 20 1003.3
20170622053901 102 262 0.0 13.0 0.00 0.00 0.00 19 1003.4
20170622053412 102 237 2.0 13.0 0.00 0.00 0.00 19 1003.3
20170622052927 102 232 0.0 5.0 0.00 0.00 0.00 19 1003.4
20170622052401 102 220 1.0 10.0 0.00 0.00 0.00 19 1003.3
20170622051914 102 226 0.0 10.0 0.00 0.00 0.00 18 1003.2
20170622051435 103 221 1.0 10.0 0.00 0.00 0.00 18 1003.2
20170622050932 103 233 0.0 3.0 0.00 0.00 0.00 18 1003.1
20170622050423 103 242 0.0 3.0 0.00 0.00 0.00 18 1003.1
20170622045918 103 248 0.0 10.0 0.00 0.00 0.00 18 1003.1
20170622045420 103 231 0.0 10.0 0.00 0.00 0.00 18 1003.0
20170622043927 103 237 0.0 7.0 0.00 0.00 0.00 18 1002.9
20170622042940 104 252 1.0 6.0 0.00 0.00 0.00 18 1002.8
20170622041420 104 262 1.0 5.0 0.00 0.00 0.00 18 1002.6
20170622040921 104 220 1.0 5.0 0.00 0.00 0.00 17 1002.6
20170622040425 104 237 0.0 6.0 0.00 0.00 0.00 17 1002.5
20170622035400 105 243 1.0 4.0 0.00 0.00 0.00 17 1002.4
20170622034908 105 246 1.0 5.0 0.00 0.00 0.00 17 1002.3
20170622034437 105 251 1.0 5.0 0.00 0.00 0.00 17 1002.2
20170622033930 105 256 0.0 9.0 0.00 0.00 0.00 17 1002.2
20170622032909 106 243 2.0 5.0 0.00 0.00 0.00 17 1002.1
20170622032445 106 243 2.0 5.0 0.00 0.00 0.00 16 1002.1
20170622025453 107 220 2.0 9.0 0.00 0.00 0.00 16 1001.8
20170622025035 107 234 0.0 6.0 0.00 0.00 0.00 16 1001.8
20170622023940 108 223 1.0 5.0 0.00 0.00 0.00 15 1001.7
20170622023427 108 224 1.0 5.0 0.00 0.00 0.00 16 1001.7
20170622022910 108 223 2.0 5.0 0.00 0.00 0.00 15 1001.7
20170622021919 109 230 1.0 5.0 0.00 0.00 0.00 15 1001.7
20170622020936 110 225 2.0 6.0 0.00 0.00 0.00 15 1001.7
20170622015903 110 223 3.0 7.0 0.00 0.00 0.00 15 1001.6
20170622015429 110 213 3.0 6.0 0.00 0.00 0.00 15 1001.7
20170622014421 111 219 4.0 8.0 0.00 0.00 0.00 15 1001.7
20170622013936 111 228 3.0 6.0 0.00 0.00 0.00 15 1001.7
20170622011931 112 243 2.0 10.0 0.00 0.00 0.00 15 1001.6
20170622011420 112 224 4.0 10.0 0.00 0.00 0.00 15 1001.5
20170622010909 112 239 1.0 7.0 0.00 0.00 0.00 15 1001.6
20170622004923 113 213 1.0 13.0 0.00 0.00 0.00 15 1001.6
20170622003438 113 210 1.0 9.0 0.00 0.00 0.00 15 1001.6
20170622002424 113 198 1.0 7.0 0.00 0.00 0.00 15 1001.7
20170622001917 113 222 3.0 10.0 0.00 0.00 0.00 15 1001.7
20170621235905 113 225 2.0 10.0 0.00 0.00 0.00 15 1001.8
20170621235444 114 210 1.0 10.0 0.00 0.00 0.00 15 1001.9
20170621233915 113 210 1.0 7.0 0.00 0.00 0.00 15 1002.0
20170621233432 114 223 2.0 7.0 0.00 0.00 0.00 15 1002.0
20170621232935 114 227 1.0 6.0 0.00 0.00 0.00 15 1002.0
20170621232420 113 218 2.0 8.0 0.00 0.00 0.00 15 1002.1
20170621230443 113 230 2.0 10.0 0.00 0.00 0.00 15 1002.2
20170621225942 114 224 1.0 9.0 0.00 0.00 0.00 15 1002.4
20170621224440 113 222 1.0 9.0 0.00 0.00 0.00 16 1002.6
20170621223911 113 204 1.0 12.0 0.00 0.00 0.00 16 1002.6
20170621222903 113 245 3.0 11.0 0.00 0.00 0.00 16 1002.9
20170621222415 113 276 5.0 11.0 0.00 0.00 0.00 16 1003.0
20170621221916 113 240 1.0 7.0 0.00 0.00 0.00 16 1003.0
20170621221401 113 234 1.0 9.0 0.00 0.00 0.00 16 1003.0
20170621220935 113 246 3.0 9.0 0.00 0.00 0.00 16 1003.1
20170621215946 113 238 3.0 11.0 0.00 0.00 0.00 16 1003.3
20170621215442 112 259 2.0 6.0 0.00 0.00 0.00 16 1003.5
20170621214932 113 228 1.0 6.0 0.00 0.00 0.00 17 1003.6
20170621213946 112 237 0.0 9.0 0.00 0.00 0.00 17 1003.8
20170621213431 112 239 0.0 9.0 0.00 0.00 0.00 17 1003.9
20170621212924 112 252 1.0 9.0 0.00 0.00 0.00 17 1004.0
20170621212443 112 236 3.0 9.0 0.00 0.00 0.00 17 1004.1
20170621211936 111 245 1.0 5.0 0.00 0.00 0.00 17 1004.2
20170621210901 111 240 3.0 7.0 0.00 0.00 0.00 18 1004.3
20170621210422 111 257 0.0 7.0 0.00 0.00 0.00 17 1004.4
20170621205945 111 268 0.0 7.0 0.00 0.00 0.00 17 1004.4
20170621204909 110 244 1.0 7.0 0.00 0.00 0.00 18 1004.6
20170621204406 110 189 1.0 7.0 0.00 0.00 0.00 18 1004.6
20170621203944 110 268 1.0 5.0 0.00 0.00 0.00 19 1004.7
20170621203436 110 273 2.0 10.0 0.00 0.00 0.00 19 1004.7
20170621202403 110 223 2.0 10.0 0.00 0.00 0.00 18 1004.9
20170621201408 109 170 1.0 5.0 0.00 0.00 0.00 18 1005.1
20170621200947 109 190 1.0 5.0 0.00 0.00 0.00 19 1005.1
20170621200402 109 227 0.0 4.0 0.00 0.00 0.00 19 1005.3
20170621195424 108 247 1.0 7.0 0.00 0.00 0.00 19 1005.5
20170621194410 108 257 0.0 5.0 0.00 0.00 0.00 21 1005.7
20170621193931 108 261 2.0 10.0 0.00 0.00 0.00 20 1005.8
20170621193417 108 255 4.0 10.0 0.00 0.00 0.00 19 1005.8
20170621192904 107 227 1.0 6.0 0.00 0.00 0.00 20 1005.9
20170621192423 107 231 1.0 6.0 0.00 0.00 0.00 21 1006.0
20170621191440 106 233 1.0 5.0 0.00 0.00 0.00 20 1006.1
20170621190427 106 230 1.0 7.0 0.00 0.00 0.00 20 1006.2
20170621185936 106 227 1.0 7.0 0.00 0.00 0.00 20 1006.3
20170621184901 105 244 2.0 5.0 0.00 0.00 0.00 21 1006.4
20170621184406 105 238 0.0 4.0 0.00 0.00 0.00 21 1006.5
20170621183419 105 230 2.0 7.0 0.00 0.00 0.00 21 1006.6
20170621182908 104 233 1.0 7.0 0.00 0.00 0.00 22 1006.6